cover

 

Get it on iTunes StoreListen on Apple Music

Spaced Out Recordings

#Trackname / Key / BPM / Publish dateArtists, Remixers / Label
1 128 bpm, 2A / Eb minor, 2014-05-17, Trance,  0  3
2 128 bpm, 7A / D minor, 2014-05-17, Trance,  0  3
3 128 bpm, 7B / F major, 2014-05-17, Trance,  0  3
4 128 bpm, 6B / Bb major, 2014-02-10, Electro House,  0  2
5 128 bpm, 12B / E major, 2014-02-10, Electro House,  0  2
6 130 bpm, 4B / Ab major, 2014-02-03, Trance,  0  2
7 128 bpm, 9A / E minor, 2014-02-03, Trance,  0  2
8 137 bpm, 10B / D major, 2013-10-28, Trance,  0  2
9 135 bpm, 7A / D minor, 2013-10-28, Trance,  0  2
10 128 bpm, 5A / C minor, 2013-10-14, Trance,  0  6
11 128 bpm, 5A / C minor, 2013-10-14, Trance,  0  6
12 130 bpm, 5A / C minor, 2013-10-14, Trance,  0  6
13 130 bpm, 5A / C minor, 2013-10-14, Trance,  0  6
14 130 bpm, 5A / C minor, 2013-10-14, Trance,  1  6
15 128 bpm, 4A / F minor, 2013-10-14, Trance,  0  6
16 128 bpm, 3A / Bb minor, 2013-08-19, Trance,  0  1
17 130 bpm, 9A / E minor, 2013-07-17, Trance,  0  6
18 128 bpm, 9A / E minor, 2013-07-17, Trance,  0  6
19 128 bpm, 9A / E minor, 2013-07-17, Trance,  0  6
20 136 bpm, 9A / E minor, 2013-07-17, Trance,  0  6
21 130 bpm, 9A / E minor, 2013-07-17, Trance,  0  6
22 130 bpm, 9A / E minor, 2013-07-17, Trance,  0  6
23 135 bpm, 12A / Db minor, 2013-06-17, Trance,  1  4
24 130 bpm, 12A / Db minor, 2013-06-17, Trance,  0  4
25 134 bpm, 12A / Db minor, 2013-06-17, Trance,  0  4
26 128 bpm, 11A / F# minor, 2013-06-17, Trance,  0  4
27 130 bpm, 9A / E minor, 2013-05-06, Trance,  0  2
28 130 bpm, 8A / A minor, 2013-05-06, Trance,  0  2
29 130 bpm, 11B / A major, 2013-04-08, Trance,  0  1
30 129 bpm, 8A / A minor, 2013-03-15, Trance,  0  2
31 128 bpm, 8A / A minor, 2013-03-15, Trance,  0  2
32 130 bpm, 5A / C minor, 2013-03-04, Trance,  0  3
33 130 bpm, 5A / C minor, 2013-03-04, Trance,  0  3
34 130 bpm, 5A / C minor, 2013-03-04, Trance,  0  3
35 130 bpm, 7A / D minor, 2013-01-14, Trance,  0  2
36 130 bpm, 7A / D minor, 2013-01-14, Trance,  0  2
37 135 bpm, 8A / A minor, 2013-01-03, Trance,  1  2
38 135 bpm, 9A / E minor, 2013-01-03, Trance,  1  2
39 100 bpm, 11B / A major, 2012-11-19, Electronica,  0  11
40 100 bpm, 9A / E minor, 2012-11-19, Electronica,  0  11
41 96 bpm, 8A / A minor, 2012-11-19, Electronica,  0  11
42 100 bpm, 8A / A minor, 2012-11-19, Electronica,  0  11
43 133 bpm, 9A / E minor, 2012-11-19, Electronica,  0  11
44 110 bpm, 11B / A major, 2012-11-19, Electronica,  0  11
45 105 bpm, 1B / B major, 2012-11-19, Electronica,  0  11
46 133 bpm, 3A / Bb minor, 2012-11-19, Electronica,  0  11
47 128 bpm, 5B / Eb major, 2012-11-19, Electronica,  0  11
48 120 bpm, 3A / Bb minor, 2012-11-19, Electronica,  0  11
49 110 bpm, 11A / F# minor, 2012-11-19, Electronica,  0  11
50 134 bpm, 7A / D minor, 2012-10-29, Trance,  0  2
51 132 bpm, 7A / D minor, 2012-10-29, Trance,  0  2
52 130 bpm, 9A / E minor, 2012-09-21, Trance,  1  2
53 130 bpm, 3A / Bb minor, 2012-09-21, Trance,  0  2
54 130 bpm, 9A / E minor, 2012-09-03, Trance,  0  2
55 130 bpm, 10A / B minor, 2012-09-03, Trance,  1  2
56 129 bpm, 9A / E minor, 2012-08-31, Trance,  0  2
57 135 bpm, 8A / A minor, 2012-08-31, Trance,  0  2
58 135 bpm, 6A / G minor, 2012-07-04, Trance,  0  2
59 135 bpm, 6A / G minor, 2012-07-04, Trance,  0  2
60 130 bpm, 2A / Eb minor, 2012-07-02, Trance,  0  3
61 130 bpm, 2A / Eb minor, 2012-07-02, Trance,  0  3
62 130 bpm, 2A / Eb minor, 2012-07-02, Trance,  0  3
63 134 bpm, 5A / C minor, 2012-06-11, Trance,  0  2
64 135 bpm, 12A / Db minor, 2012-06-11, Trance,  0  2
65 130 bpm, 12B / E major, 2012-05-08, Progressive House,  0  3
66 130 bpm, 12B / E major, 2012-05-08, Progressive House,  0  3
67 130 bpm, 12B / E major, 2012-05-08, Progressive House,  0  3
68 136 bpm, 7B / F major, 2012-04-09, Trance,  1  1
69 135 bpm, 12B / E major, 2012-04-02, Trance,  0  3
70 135 bpm, 9A / E minor, 2012-04-02, Trance,  0  3
71 134 bpm, 9A / E minor, 2012-04-02, Trance,  0  3
72 140 bpm, 10A / B minor, 2012-03-26, Trance,  0  2
73 138 bpm, 3A / Bb minor, 2012-03-26, Trance,  0  2
74 132 bpm, 8A / A minor, 2012-02-05, Trance,  0  1
75 135 bpm, 9A / E minor, 2011-12-16, Trance,  0  4
76 135 bpm, 12B / E major, 2011-12-16, Trance,  0  4
77 138 bpm, 9A / E minor, 2011-12-16, Trance,  0  4
78 135 bpm, 5A / C minor, 2011-12-16, Trance,  0  4
79 130 bpm, 12B / E major, 2011-12-09, Progressive House,  1  2
80 130 bpm, 12B / E major, 2011-12-09, Progressive House,  0  2
81 130 bpm, 6A / G minor, 2011-11-28, Trance,  0  2
82 132 bpm, 3A / Bb minor, 2011-11-28, Trance,  0  2
83 130 bpm, 1A / Ab minor, 2011-11-21, Trance,  0  3
84 130 bpm, 1A / Ab minor, 2011-11-21, Trance,  0  3
85 135 bpm, 1A / Ab minor, 2011-11-21, Trance,  0  3
86 135 bpm, 5B / Eb major, 2011-11-07, Trance,  0  2
87 140 bpm, 9B / G major, 2011-11-07, Trance,  0  2
88 134 bpm, 11A / F# minor, 2011-09-26, Trance,  0  1
89 128 bpm, 3A / Bb minor, 2011-08-15, Trance,  0  2
90 132 bpm, 3A / Bb minor, 2011-08-15, Trance,  0  2
91 135 bpm, 12B / E major, 2011-08-01, Trance,  0  5
92 128 bpm, 9A / E minor, 2011-08-01, Electro House,  0  5
93 134 bpm, 9A / E minor, 2011-08-01, Trance,  0  5
94 135 bpm, 8A / A minor, 2011-08-01, Trance,  0  5
95 138 bpm, 12B / E major, 2011-08-01, Trance,  0  5
96 140 bpm, 3A / Bb minor, 2011-07-11, Trance,  0  2
97 138 bpm, 3A / Bb minor, 2011-07-11, Trance,  0  2
98 138 bpm, 3A / Bb minor, 2011-05-09, Trance,  0  2
99 136 bpm, 1A / Ab minor, 2011-05-09, Trance,  0  2
100 132 bpm, 2A / Eb minor, 2011-04-18, Trance,  0  2
×

Sign in

Sign in to access your personalized pages, follow artists and labels you love, and create playlists fromyour favorite tracks.

Please wait...